Weather History for Wichita Falls, TX

Change the Weather History Date:

Monday, September 23, 2013

  Actual Average (KSPS) Record (KSPS)
Temperature  
Mean Temperature 72 °F 73 °F  
Max Temperature 86 °F 85 °F 102 °F (1926)
Min Temperature 58 °F 60 °F 42 °F (1989)
Degree Days  
Heating Degree Days 0 1  
Month to date heating degree days 5  
Since 1 July heating degree days 5  
Cooling Degree Days 7 9  
Month to date cooling degree days 284  
Year to date cooling degree days 2229  
Growing Degree Days 22 (Base 50)    
Moisture  
Dew Point 51 °F    
Average Humidity 51    
Maximum Humidity 80    
Minimum Humidity 26    
Precipitation  
Precipitation 0.00 in 0.09 in 1.88 in (1904)
Month to date precipitation 2.22  
Year to date precipitation 21.95  
Sea Level Pressure  
Sea Level Pressure 29.81 in    
Wind  
Wind Speed 10 mph (SE)    
Max Wind Speed 17 mph    
Max Gust Speed 28 mph    
Visibility 10 miles    
Events      
T = Trace of Precipitation, MM = Missing Value Source: NWS Daily Summary

Daily Weather History Graph

Daily Weather History Graph

Search for Another Location

Airport:

Trip Planner

Search our weather history database for the weather conditions in past years. The results will help you decide how hot, cold, wet, or windy it might be!

Date:

Astronomy

Sep. 23, 2013 Rise Set
Actual Time 7:22 AM CDT 7:28 PM CDT
Civil Twilight 6:58 AM CDT 7:53 PM CDT
Nautical Twilight 6:28 AM CDT 8:22 PM CDT
Astronomical Twilight 5:59 AM CDT 8:52 PM CDT
Moon 10:15 PM CDT (9/23) 11:30 AM CDT (9/23)
Length of Visible Light 12h 55m
Length of Day
12h 05m
Waning Gibbous, 81% of the Moon is Illuminated
Sep 23
Waning Gibbous
Sep 26
Last Quarter
Oct 4
New
Oct 11
First Quarter
Oct 18
Full

Hourly Weather History & Observations

Time (CDT) Temp. Dew Point Humidity Pressure Visibility Wind Dir Wind Speed Gust Speed Precip Events Conditions
12:15 AM 65.8 °F 51.8 °F 60% 29.85 in 10.0 mi SE 8.1 mph - N/A   Clear
12:35 AM 64.6 °F 52.7 °F 65% 29.85 in 10.0 mi SE 6.9 mph - N/A   Clear
12:55 AM 63.5 °F 52.9 °F 68% 29.85 in 10.0 mi SE 5.8 mph - N/A   Clear
1:15 AM 61.9 °F 52.9 °F 72% 29.84 in 10.0 mi SSE 6.9 mph - N/A   Clear
1:35 AM 62.1 °F 53.1 °F 72% 29.85 in 10.0 mi SSE 6.9 mph - N/A   Clear
1:55 AM 62.1 °F 52.7 °F 71% 29.84 in 10.0 mi SSE 8.1 mph - N/A   Clear
2:15 AM 62.4 °F 52.3 °F 70% 29.84 in 10.0 mi SSE 8.1 mph - N/A   Clear
2:35 AM 62.6 °F 52.2 °F 69% 29.83 in 10.0 mi SE 9.2 mph - N/A   Clear
2:55 AM 61.7 °F 52.7 °F 72% 29.83 in 10.0 mi SSE 9.2 mph - N/A   Clear
3:15 AM 61.2 °F 52.2 °F 72% 29.82 in 10.0 mi SSE 10.4 mph - N/A   Clear
3:35 AM 61.3 °F 52.0 °F 71% 29.82 in 10.0 mi SSE 9.2 mph - N/A   Clear
3:55 AM 60.8 °F 51.8 °F 72% 29.82 in 10.0 mi SSE 6.9 mph - N/A   Clear
4:15 AM 60.4 °F 51.4 °F 72% 29.82 in 10.0 mi SE 6.9 mph - N/A   Clear
4:35 AM 59.7 °F 51.3 °F 74% 29.83 in 10.0 mi SE 5.8 mph - N/A   Clear
4:55 AM 59.9 °F 51.1 °F 73% 29.82 in 10.0 mi SE 9.2 mph - N/A   Clear
5:15 AM 60.3 °F 51.1 °F 72% 29.83 in 10.0 mi SE 10.4 mph - N/A   Clear
5:35 AM 60.3 °F 51.3 °F 72% 29.83 in 10.0 mi SE 8.1 mph - N/A   Clear
5:55 AM 59.7 °F 51.6 °F 75% 29.83 in 10.0 mi SE 6.9 mph - N/A   Clear
6:15 AM 60.1 °F 51.4 °F 73% 29.83 in 10.0 mi SE 6.9 mph - N/A   Clear
6:35 AM 59.0 °F 52.0 °F 78% 29.85 in 10.0 mi SE 4.6 mph - N/A   Clear
6:55 AM 58.6 °F 52.0 °F 79% 29.83 in 10.0 mi SE 8.1 mph - N/A   Clear
7:15 AM 58.5 °F 52.2 °F 80% 29.84 in 10.0 mi SSE 8.1 mph - N/A   Clear
7:35 AM 59.4 °F 52.3 °F 78% 29.83 in 10.0 mi SE 9.2 mph - N/A   Clear
7:55 AM 59.2 °F 52.3 °F 78% 29.85 in 10.0 mi SSE 8.1 mph - N/A   Clear
8:15 AM 60.4 °F 52.3 °F 75% 29.84 in 10.0 mi SE 10.4 mph - N/A   Clear
8:35 AM 62.2 °F 51.8 °F 69% 29.84 in 10.0 mi SSE 11.5 mph - N/A   Clear
8:55 AM 64.6 °F 52.0 °F 64% 29.85 in 10.0 mi SSE 11.5 mph 16.1 mph N/A   Clear
9:15 AM 66.6 °F 51.6 °F 59% 29.85 in 10.0 mi SSE 11.5 mph 18.4 mph N/A   Clear
9:35 AM 68.4 °F 51.4 °F 55% 29.85 in 10.0 mi SSE 15.0 mph - N/A   Clear
9:55 AM 70.5 °F 51.6 °F 51% 29.86 in 10.0 mi South 15.0 mph - N/A   Clear
10:15 AM 72.0 °F 50.9 °F 47% 29.86 in 10.0 mi SSE 16.1 mph 20.7 mph N/A   Clear
10:35 AM 73.2 °F 51.4 °F 46% 29.86 in 10.0 mi SSE 15.0 mph - N/A   Clear
10:55 AM 74.3 °F 51.3 °F 44% 29.86 in 10.0 mi SSE 15.0 mph - N/A   Clear
11:15 AM 76.1 °F 50.4 °F 40% 29.86 in 10.0 mi SSE 17.3 mph - N/A   Clear
11:35 AM 77.4 °F 49.6 °F 38% 29.85 in 10.0 mi South 13.8 mph 19.6 mph N/A   Clear
11:55 AM 78.4 °F 49.5 °F 36% 29.85 in 10.0 mi South 16.1 mph - N/A   Clear
12:15 PM 79.0 °F 49.1 °F 35% 29.84 in 10.0 mi South 16.1 mph 23.0 mph N/A   Clear
12:35 PM 79.7 °F 49.1 °F 34% 29.84 in 10.0 mi South 13.8 mph - N/A   Clear
12:55 PM 80.8 °F 49.1 °F 33% 29.83 in 10.0 mi SSE 12.7 mph 19.6 mph N/A   Clear
1:15 PM 81.0 °F 48.9 °F 33% 29.82 in 10.0 mi South 13.8 mph 19.6 mph N/A   Clear
1:35 PM 81.9 °F 49.1 °F 32% 29.81 in 10.0 mi South 15.0 mph 21.9 mph N/A   Clear
1:55 PM 82.8 °F 49.6 °F 32% 29.80 in 10.0 mi South 17.3 mph 21.9 mph N/A   Clear
2:15 PM 82.9 °F 48.9 °F 31% 29.78 in 10.0 mi South 16.1 mph 21.9 mph N/A   Clear
2:35 PM 83.7 °F 48.9 °F 30% 29.77 in 10.0 mi SSE 15.0 mph 24.2 mph N/A   Clear
2:55 PM 83.7 °F 48.7 °F 30% 29.76 in 10.0 mi South 16.1 mph 23.0 mph N/A   Clear
3:15 PM 84.7 °F 48.6 °F 28% 29.76 in 10.0 mi South 17.3 mph 23.0 mph N/A   Clear
3:35 PM 84.7 °F 48.6 °F 28% 29.76 in 10.0 mi South 13.8 mph 27.6 mph N/A   Clear
3:55 PM 84.9 °F 49.1 °F 29% 29.76 in 10.0 mi SSE 15.0 mph 21.9 mph N/A   Clear
4:15 PM 85.5 °F 48.9 °F 28% 29.75 in 10.0 mi SSE 12.7 mph 19.6 mph N/A   Clear
4:35 PM 86.0 °F 48.7 °F 27% 29.75 in 10.0 mi South 11.5 mph 19.6 mph N/A   Clear
4:55 PM 86.2 °F 48.2 °F 27% 29.74 in 10.0 mi SSE 15.0 mph 19.6 mph N/A   Clear
5:15 PM 86.2 °F 47.1 °F 26% 29.74 in 10.0 mi South 16.1 mph - N/A   Clear
5:35 PM 86.2 °F 47.8 °F 26% 29.74 in 10.0 mi SSE 13.8 mph 18.4 mph N/A   Clear
5:55 PM 86.0 °F 47.3 °F 26% 29.75 in 10.0 mi South 13.8 mph - N/A   Clear
6:15 PM 85.3 °F 47.8 °F 27% 29.75 in 10.0 mi SSE 11.5 mph - N/A   Clear
6:35 PM 84.7 °F 48.2 °F 28% 29.76 in 10.0 mi SSE 10.4 mph - N/A   Clear
6:55 PM 83.3 °F 49.5 °F 31% 29.76 in 10.0 mi SSE 9.2 mph - N/A   Clear
7:15 PM 81.0 °F 50.4 °F 34% 29.77 in 10.0 mi SE 6.9 mph - N/A   Clear
7:35 PM 79.5 °F 49.6 °F 35% 29.76 in 10.0 mi SE 8.1 mph - N/A   Clear
7:55 PM 78.3 °F 51.1 °F 39% 29.77 in 10.0 mi ESE 9.2 mph - N/A   Clear
8:15 PM 77.0 °F 52.7 °F 43% 29.77 in 10.0 mi ESE 6.9 mph - N/A   Clear
8:35 PM 76.5 °F 52.0 °F 42% 29.78 in 10.0 mi ESE 8.1 mph - N/A   Clear
8:55 PM 75.7 °F 51.8 °F 43% 29.79 in 10.0 mi ESE 6.9 mph - N/A   Clear
9:15 PM 74.5 °F 51.8 °F 45% 29.80 in 10.0 mi East 6.9 mph - N/A   Clear
9:35 PM 73.9 °F 51.8 °F 46% 29.81 in 10.0 mi ESE 8.1 mph - N/A   Clear
9:55 PM 73.8 °F 51.8 °F 46% 29.82 in 10.0 mi ESE 6.9 mph - N/A   Clear
10:15 PM 72.7 °F 52.3 °F 49% 29.83 in 10.0 mi ESE 9.2 mph - N/A   Clear
10:35 PM 72.7 °F 52.2 °F 48% 29.84 in 10.0 mi East 8.1 mph - N/A   Clear
10:55 PM 71.6 °F 52.7 °F 51% 29.84 in 10.0 mi East 6.9 mph - N/A   Clear
11:15 PM 70.2 °F 53.6 °F 56% 29.85 in 10.0 mi East 6.9 mph - N/A   Clear
11:35 PM 69.1 °F 54.0 °F 58% 29.86 in 10.0 mi East 4.6 mph - N/A   Clear
11:55 PM 68.4 °F 54.1 °F 60% 29.86 in 10.0 mi East 5.8 mph - N/A   Clear